Flag for Brazil Weather past 2 weeks in Manaus, Amazonas, Brazil

Now
79 °F

Scattered clouds.


Feels Like: 82 °F
Forecast: 76 / 86 °F
Wind: 6 mph from East

Location: Manaus Aeroporto

Current Time: Apr 27, 2015 at 9:10:56 AM

Latest Report: Apr 27, 2015 at 8:00 AM


Visibility: N/A

Pressure: 29.92 "Hg

Humidity: 84%

Dew point: 73 °F

Location of ManausLocation

Historic Weather in Manaus — Graph

°F

Manaus temperature yesterday

Maximum temperature yesterday: 88 °F (at 1:00 PM)
Minimum temperature yesterday: 77 °F (at 12:00 AM)
Average temperature yesterday: 80 °F

Past Weeks' High & Low Weather Summary

 TemperatureHumidityPressure
High90 °F (Apr 21, 3:00 PM)100% (Apr 17, 5:00 PM)30.04 "Hg (Apr 17, 5:00 PM)
Low45 °F (Apr 17, 5:00 PM)52% (Apr 21, 3:00 PM)29.74 "Hg (Apr 20, 3:00 PM)
Average79 °F84%29.88 "Hg
* Reported Apr 12 8:00 AM — Apr 27 8:00 AM, Manaus, Weather by CustomWeather, © 2015

Note: Actual official high and low records may vary slightly from our data, if they occured in-between our weather recording intervals... More about our weather records

Advertising

Manaus weather history for previous 24 hours

 ConditionsComfort  
Time TempWeatherWind HumidityBarometerVisibility
8:00 AM
Mon, Apr 27
79 °FScattered clouds.6 mph84%29.92 "HgN/A
7:00 AM75 °FPartly sunny.7 mph89%29.89 "HgN/A
6:00 AM75 °FLight rain. Broken clouds.8 mph89%29.86 "HgN/A
5:00 AM79 °FPartly cloudy.2 mph89%29.83 "HgN/A
4:00 AM79 °FClear.2 mph89%29.83 "Hg10 mi
3:00 AM79 °FClear.2 mph89%29.83 "Hg10 mi
2:00 AM79 °FClear.2 mph89%29.83 "Hg10 mi
1:00 AM79 °FClear.1 mph89%29.89 "Hg10 mi
12:00 AM79 °FClear.1 mph89%29.89 "Hg10 mi
11:00 PM
Sun, Apr 26
79 °FClear.2 mph89%29.89 "Hg10 mi
10:00 PM79 °FClear.2 mph89%29.89 "Hg10 mi
9:00 PM79 °FPassing clouds.No wind89%29.86 "HgN/A
8:00 PM79 °FPassing clouds.2 mph89%29.86 "HgN/A
7:00 PM79 °FPassing clouds.3 mph89%29.83 "HgN/A
6:00 PM79 °FPassing clouds.2 mph89%29.80 "HgN/A
5:00 PM81 °FScattered clouds.5 mph84%29.77 "HgN/A
4:00 PM81 °FScattered clouds.6 mph79%29.80 "HgN/A
3:00 PM79 °FThunderstorms. Partly sunny.5 mph84%29.80 "HgN/A
2:00 PM79 °FThunderstorms. Partly sunny.16 mph84%29.83 "HgN/A
1:00 PM88 °FThunderstorms. Scattered clouds.5 mph66%29.86 "HgN/A
12:00 PM86 °FScattered clouds.6 mph70%29.89 "HgN/A
11:00 AM84 °FScattered clouds.5 mph74%29.92 "HgN/A
10:00 AM84 °FScattered clouds.6 mph74%29.95 "HgN/A
9:00 AM82 °FScattered clouds.2 mph79%29.95 "HgN/A
Weather by CustomWeather, © 2015

See weather overviewHow to use our weather pages